C/2010 L3 ( Catalina )

Japanese version
Home page
Updated on December 7, 2011

---------------------------------------------------------------------

* Profile

Discovery Date June 15, 2010
Magnitude 19.6 mag
Discoverer Catalina Sky Survey

* Pictures

* Orbital Elements

Epoch 2010 Nov. 20.0 TT = JDT 2455520.5
T 2010 Nov. 10.35555 TT                                 MPC
q   9.8828400            (2000.0)            P               Q
z  +0.0000900      Peri.  121.76924     -0.29816308     -0.73873673
 +/-0.0000024      Node    38.27576     -0.76312317     -0.19589783
e   0.9991106      Incl.  102.63084     +0.57336011     -0.64489696
From 103 observations 2010 June 15-2011 June 27, mean residual 0".5.

* Magnitudes Graph

        m1 = 4.5 + 5 log d + 10.0 log r

---------------------------------------------------------------------

The orbital elements are published on M.P.E.C. 2011-O57.
The magnitudes graphs are made with Comet for Windows.

---------------------------------------------------------------------

Copyright(C) Seiichi Yoshida (comet@aerith.net). All rights reserved.